{"data":{"norad_id":58155,"intl_designator":"2023-166F","name":"STARLINK-30804","alt_names":[],"object_type":"PAYLOAD","status":"ACTIVE","operator":null,"country":"US","launch_date":"2023-10-29","launch_site_code":"AFWTR","launch_vehicle":null,"mission":null,"orbit_class":"UNKNOWN","rcs_meters":null,"size_class":null,"mass_kg":null,"dimensions":null,"purposes":["comms"],"wikipedia_slug":null,"has_3d_model":false,"image_url":null,"decayed_at":null,"tle_current":{"epoch":"2026-09-20T19:58:41.230560Z","epoch_age_seconds":111699,"freshness":"FRESH","line1":"1 58155U 23166F   26263.83242165  .00001299  00000+0  53601-4 0  9991","line2":"2 58155  53.1592  31.9802 0001324  77.7513 282.3636 15.31703693163079","mean_motion":15.31703693,"eccentricity":0.0001324,"inclination_deg":53.1592,"raan_deg":31.9802,"arg_perigee_deg":77.7513,"mean_anomaly_deg":282.3636,"bstar":5.3601e-5,"rev_number":16307,"period_min":94.012961291463,"perigee_km":469.82219675031,"apogee_km":471.63577646356,"semimajor_km":6848.8659866069,"source":"CELESTRAK","updated_at":"2026-09-21T09:00:33.796412Z"}}}